This is the latest recevied weather packets stored in our database for station/object N8SHA. If no packets are shown the sender has not sent any weather packets the latest 10 day(s).
| Time | Temp. | Humidity | Pressure | Rain* | Wind** | Luminosity | Snow |
|---|---|---|---|---|---|---|---|
| 1777660795 | 8.33° C | 58% | 1013.9 hPa | 0 mm | - | 406 W/m² | - |
| 1777660492 | 7.78° C | 57% | 1014 hPa | 0 mm | - | 173 W/m² | - |
| 1777660188 | 8.33° C | 58% | 1013.7 hPa | 0 mm | - | 206 W/m² | - |
| 1777659885 | 7.78° C | 56% | 1013.9 hPa | 0 mm | - | 274 W/m² | - |
| 1777659582 | 8.33° C | 61% | 1013.7 hPa | 0 mm | - | 354 W/m² | - |
| 1777659279 | 8.33° C | 60% | 1013.8 hPa | 0 mm | - | 263 W/m² | - |
| 1777658976 | 8.89° C | 62% | 1013.7 hPa | 0 mm | - | 282 W/m² | - |
| 1777658668 | 7.78° C | 64% | 1013.8 hPa | 0 mm | - | 863 W/m² | - |
| 1777658364 | 7.78° C | 63% | 1013.8 hPa | 0 mm | - | 298 W/m² | - |
| 1777658061 | 7.22° C | 64% | 1013.6 hPa | 0 mm | - | 185 W/m² | - |
| 1777657757 | 7.22° C | 63% | 1013.8 hPa | 0 mm | - | 134 W/m² | - |
| 1777657455 | 7.22° C | 65% | 1014 hPa | 0 mm | - | 112 W/m² | - |
| 1777657153 | 7.22° C | 66% | 1013.8 hPa | 0 mm | - | 125 W/m² | - |
| 1777656850 | 7.22° C | 66% | 1013.9 hPa | 0 mm | - | 84 W/m² | - |
| 1777656545 | 7.78° C | 64% | 1013.8 hPa | 0 mm | - | 142 W/m² | - |
| 1777656241 | 7.78° C | 62% | 1013.8 hPa | 0 mm | - | 348 W/m² | - |
| 1777655936 | 8.33° C | 63% | 1013.8 hPa | 0 mm | - | 330 W/m² | - |
| 1777655633 | 8.89° C | 64% | 1014 hPa | 0 mm | - | 489 W/m² | - |
| 1777655330 | 7.78° C | 61% | 1013.9 hPa | 0 mm | - | 378 W/m² | - |
| 1777655027 | 7.78° C | 64% | 1013.8 hPa | 0 mm | - | 300 W/m² | - |
| 1777654725 | 7.78° C | 62% | 1014 hPa | 0 mm | - | 224 W/m² | - |
| 1777654422 | 8.33° C | 60% | 1013.9 hPa | 0 mm | - | 212 W/m² | - |
| 1777654120 | 7.78° C | 59% | 1013.9 hPa | 0 mm | - | 315 W/m² | - |
| 1777653818 | 8.33° C | 57% | 1013.8 hPa | 0 mm | - | 339 W/m² | - |
| 1777653513 | 8.33° C | 57% | 1014 hPa | 0 mm | - | 300 W/m² | - |
* Rain latest hour (hover to see other rain measurements)
** Current wind speed in m/s (hover to see current wind gust speed)